Location: Arrodets-la-Barthe
(43.0306°N, 0.2829°E)
Time: 18:07:59
(UTC+00:00)

ATLAS 3B R/B - Pass Details

Date: 24 October 2021
Orbit: 989 x 1206 km, 63.8° (Epoch: 25 November)

Event Time Altitude Azimuth Distance (km) Brightness Sun altitude
Rises 17:39:11 0° 256° (WSW) 3,727 8.1 -7.5°
Reaches altitude 10° 17:42:10 10° 269° (W) 2,802 6.6 -8.0°
Maximum altitude 17:47:40 27° 326° (NW) 1,886 4.3 -9.0°
Drops below altitude 10° 17:53:24 10° 22° (NNE) 2,927 4.7 -10.0°
Sets 17:56:38 0° 35° (NE) 3,924 5.3 -10.6°
